Location: Dillon
(41.1766°N, 107.0923°W)
Time: 20:30:57
(UTC+00:00)

DIWATA 2B (PO-101) - Pass Details

Date: 03 July 2022
Orbit: 583 x 599 km, 98.0° (Epoch: 11 August)

Event Time Altitude Azimuth Distance (km) Brightness Sun altitude
Exits shadow 09:59:28 21° 252° (WSW) 1,347 ? -15.1°
Maximum altitude 10:00:05 22° 265° (W) 1,322 ? -15.0°
Drops below altitude 10° 10:03:23 10° 317° (NW) 1,945 ? -14.6°
Sets 10:05:59 0° 333° (NNW) 2,853 ? -14.3°
